www.pogodaiklimat.ru

Погода и климат >> Архив погоды >> Пакистан >> Jhelum


ПОГОДА в Jhelum

  • Прогноз погоды в Jhelum
  • Монитор погоды в Jhelum
  • Климат города

АРХИВ ПОГОДЫ в Jhelum

Время (UTC), дата Ветер
(напр.,м/с)
 
Видим.   Явления Облачность Т
(С)
Тd
(С)
f
(%)
Тe
(С)
Тes
(С)
Комфортность P
(гПа)
Po
(гПа)
Тmin
(С)
Tmax
(С)
R
(мм)
R24
(мм)
S
(см)
00 11.11 штиль 0 2000 м дымка ясно +12.0 +9.0 82 +11 +11 1014.7 987.0
03 11.11 штиль 0 2000 м дымка 9/4 1200 м
[Sc As op]
+14.5 +11.7 83 +14 +14 1015.8 988.3 +11.1
06 11.11 штиль 0 4000 м дым 10/9 300 м
[Sc As op]
+20.0 +13.0 64 +22 +22 комфорт 1016.6 989.5
09 11.11 штиль 0 4000 м дым 6/0
[Ac As]
+25.0 +12.0 44 +27 +31 жарко 1013.6 987.0
12 11.11 штиль 0 4000 м дым 5/0
[Ac As]
+23.0 +14.8 60 +27 +27 душно 1013.2 986.5 +25.5
15 11.11 штиль 0 4000 м дым 5/0
[Ac As]
+17.0 +12.5 75 +17 +17 1015.5 988.2
18 11.11 СВ 1 4000 м дым ясно +15.0 +12.3 84 +16 +16 1015.7 988.2
21 11.11 штиль 0 2000 м дымка ясно +13.5 +10.6 83 +13 +13 1015.3 987.7
00 12.11 штиль 0 2000 м дымка 3/0
[Ac trans]
+12.0 +10.1 88 +11 +11 1014.0 986.3
03 12.11 штиль 0 2000 м дымка 9/5 300 м
[Sc Ac As]
+14.0 +11.2 83 +14 +14 1014.1 986.6 +11.7
06 12.11 штиль 0 4000 м дым {морось} 9/6 300 м
[St Ac As]
+17.5 +13.1 75 +18 +19 1015.0 987.8 0.0
09 12.11 СВ 1 2000 м {морось} 10/6 300 м
[Sc Ac As]
+22.0 +12.4 54 +24 +25 комфорт 1011.7 984.9 0.0
12 12.11 ЮЗ 1 4000 м дым 8/5 300 м
[Sc Ac As]
+22.0 +15.4 66 +26 +26 душно 1011.1 984.3 +23.5
15 12.11 штиль 0 2000 м дым 5/0
[Ac As]
+17.0 +12.5 75 +17 +17 1012.2 984.9
18 12.11 штиль 0 2000 м дымка 4/0
[Ac trans]
+14.5 +11.7 83 +14 +14 1012.3 984.9
21 12.11 штиль 0 2000 м дымка 4/0
[Ac As]
+13.5 +10.6 83 +13 +13 1012.9 985.4
00 13.11 штиль 0 2000 м дымка 5/0
[Ac As]
+13.0 +10.1 83 +13 +13 1011.3 983.7
03 13.11 штиль 0 2000 м дым 8/5 300 м
[Sc Ac As]
+14.0 +10.2 78 +14 +14 1011.7 984.3 +12.3
06 13.11 СЗ 1 2000 м дым 8/3 1200 м
[Sc As op]
+20.0 +10.9 56 +23 +25 комфорт 1012.3 985.3 0.0
09 13.11 СЗ 1 2000 м дым {морось} 10/4 1200 м
[Sc As op]
+21.0 +11.1 53 +24 +25 комфорт 1010.2 983.3 0.1
12 13.11 СВ 1 4000 м дым 6/3 1200 м
[Sc As op]
+19.5 +13.4 68 +22 +22 комфорт 1010.3 983.2 +21.7 0.1
15 13.11 штиль 0 4000 м дым 6/0
[Ac As]
+16.5 +12.0 75 +16 +16 1011.0 983.7
18 13.11 штиль 0 2000 м дымка 5/0
[Ac As]
+14.0 +11.2 83 +14 +14 1011.5 984.0
21 13.11 СЗ 1 2000 м дымка 6/5 300 м
[Sc Ac As]
+13.5 +11.6 88 +14 +14 1011.2 983.7
00 14.11 штиль 0 2000 м дымка 5/0
[Ac As]
+13.0 +10.1 83 +13 +13 1010.9 983.4
03 14.11 штиль 0 2000 м дым 10/10 300 м
[Sc As op]
+15.0 +10.3 73 +15 +15 1012.5 985.1 +11.1
06 14.11 СВ 1 4000 м дым {морось} 9/6 300 м
[Sc As op]
+19.0 +12.8 67 +22 +23 комфорт 1012.2 985.1
09 14.11 СВ 1 4000 м мгла 5/0
[Ac trans]
+24.5 +10.1 40 +25 +30 комфорт 1010.1 983.5
12 14.11 ЮВ 1 2000 м дым {гроза} 9/8 300 м
[Sc As op]
+21.0 +12.2 57 +24 +24 комфорт 1011.8 984.9 +25.1 0.0
15 14.11 штиль 0 2000 м дым 4/0
[Ac As]
+17.0 +11.5 70 +17 +17 1012.8 985.5
18 14.11 штиль 0 2000 м дымка ясно +14.0 +11.2 83 +14 +14 1014.8 987.3
21 14.11 СЗ 1 2000 м дымка ясно +12.5 +9.6 82 +13 +13 1016.0 988.3
00 15.11 штиль 0 2000 м дымка ясно +11.0 +7.9 81 +10 +10 1016.1 988.3
03 15.11 штиль 0 50 км ?/? +8.7 1018.0 990.5
06 15.11 СЗ 1 4000 м мгла 3/0
[Ci fib]
+21.5 +9.5 46 +23 +32 комфорт 1018.7 991.7
09 15.11 С 1 4000 м мгла ясно +25.0 +7.8 33 +25 +32 комфорт 1015.5 988.9
12 15.11 ЮЗ 1 4000 м мгла 6/0
[Ac trans Ci fib]
+23.5 +8.6 39 +24 +24 комфорт 1015.1 988.4 +24.9
15 15.11 штиль 0 4000 м дым 6/0
[Ac trans Ci fib]
+16.5 +9.9 65 +16 +16 1016.3 989.0
18 15.11 штиль 0 4000 м дым 4/0
[Ac trans]
+13.5 +8.5 72 +13 +13 1016.6 989.0
21 15.11 СЗ 1 4000 м дым 4/0
[Ac As]
+12.5 +9.6 82 +13 +13 1016.2 988.5
00 16.11 штиль 0 2000 м дымка 4/0
[Ac trans]
+12.0 +9.0 82 +11 +11 1015.0 987.3
03 16.11 штиль 0 2000 м дым ясно +12.5 +7.4 71 +12 +13 1015.5 987.8 +10.7
06 16.11 СЗ 1 4000 м мгла ясно +21.5 +4.8 34 +22 +30 комфорт 1015.0 988.1
09 16.11 СЗ 2 4000 м мгла ясно +26.0 +2.5 22 +25 +31 комфорт 1011.6 985.1
12 16.11 штиль 0 4000 м мгла ясно +23.0 +9.2 41 +24 +24 комфорт 1010.3 983.6 +26.5
15 16.11 штиль 0 4000 м дым ясно +16.5 +8.8 60 +16 +16 1012.4 985.1
18 16.11 З 1 4000 м дым 6/0
[Ac As]
+13.0 +8.0 72 +14 +14 1013.3 985.8
21 16.11 штиль 0 4000 м дымка 5/0
[Ac As]
+13.0 +10.1 83 +13 +13 1012.8 985.3
00 17.11 штиль 0 2000 м дымка ясно +10.5 +7.4 81 +10 +10 1012.5 984.6
03 17.11 штиль 0 2000 м дымка ясно +9.0 +5.7 80 +8 +9 1013.5 985.5 +8.3
06 17.11 СЗ 1 4000 м мгла ясно +22.0 +3.4 29 +22 +30 комфорт 1013.0 986.2
09 17.11 штиль 0 4000 м мгла 3/0
[Ci fib]
+25.5 +4.9 27 +25 +32 комфорт 1009.2 982.8
12 17.11 штиль 0 4000 м дым 6/0
[Ac As]
+22.0 +11.3 51 +24 +24 комфорт 1009.0 982.3 +26.1
15 17.11 штиль 0 4000 м дым 1/0
[Ac trans]
+17.0 +9.4 61 +17 +17 1011.3 1011.0
18 17.11 штиль 0 4000 м дым 3/0
[Ac trans]
+14.0 +9.1 72 +14 +14 1012.6 985.1

 

Местоположение метеостанции Jhelum (Пакистан): широта 32.93 долгота 73.72 высота над уровнем моря 234 м.

В архиве по умолчанию представлена погода в Jhelum за последнюю неделю. Архивные данные за месяц целиком и за предыдущие месяцы, начиная с января 2011 года, Вы можете получить, выбрав интересующий диапазон дат из раскрывающегося списка и нажав кнопку "Ввод!".


*Определитесь, кто Вы:
робот инопланетянин человек

Внимание! Время в таблицах - всемирное. Для получения местного времени необходимо прибавить поправку, которая в Jhelum равна 5 ч.

Смотрите также архив погоды в соседних городах и на ближайших метеорологических станциях:

Погода в Sialkot (Пакистан) (90 км)
Погода в Islamabad (Пакистан) (96 км)
Погода в Jammu (Jammu and Kashmir, Индия) (108 км)
Погода в Katra (Jammu and Kashmir, Индия) (113 км)
Погода в Murree (Пакистан) (115 км)
Погода в Sargodha (Пакистан) (139 км)
Погода в Gulmarg (Jammu and Kashmir, Индия) (140 км)
Погода в Qazigund (Jammu and Kashmir, Индия) (146 км)
Погода в Kakul (Пакистан) (146 км)
Погода в Banihal (Jammu and Kashmir, Индия) (149 км)

Пояснения к столбцам:

Ветер - указаны скорость ветра в м/с - средняя за 10 мин, порывы в срок и между сроками (в фигурных скобках) и направление, откуда дует ветер: С - северный, СВ - северо-восточный, В - восточный, ЮВ - юго-восточный, Ю - южный, ЮЗ - юго-западный, З - западный, СЗ - северо-западный.
Видимость - горизонтальная дальность видимости в метрах или километрах. При видимости от 1 до 10 км при отсутствии осадков обычно наблюдается дымка, при ухудшении видимости до 1 км и менее - туман. В сухую погоду видимость может ухудшаться дымом, пылью или мглою.
Явления - указаны атмосферные явления, наблюдавшиеся в срок или в последний час перед сроком; фигурными скобками обозначены явления, наблюдавшиеся между сроками (за 1-3 часа до срока); квадратными скобками обозначены град или гололедные отложения с указанием их диаметра в мм.
Облачность - указаны через наклонную черту общая и нижняя облачность в баллах и высота нижней границы облаков в метрах; квадратными скобками обозначены формы облаков: Ci - перистые, Cs - перисто-слоистые, Cc - перисто-кучевые, Ac - высококучевые, As - высокослоистые, Sc - слоисто-кучевые, Ns - слоисто-дождевые, Cu - кучевые, Cb - кучево-дождевые. Подробнее классификацию облаков см. в Атласе облаков (PDF).
T - Температура воздуха - температура, измеренная на высоте 2 м над землей.
Td - Температура точки росы - температура, при понижении до которой содержащийся в воздухе водяной пар достигнет насыщения.
f - Относительная влажность воздуха - влажноcть воздуха, измеренная на высоте 2 м над землей.
Te - Эффективная температура - температура, которую ощущает одетый по сезону человек в тени. Характеристика душности погоды. При расчете учитывается влияние влажности воздуха и скорости ветра на теплоощущения человека.
Tes - Эффективная температура на солнце - температура, которую ощущает человек, с поправкой на солнечный нагрев. Характеристика знойности погоды. Зависит от высоты солнца над горизонтом, облачности и скорости ветра. Ночью, в пасмурную погоду, а также при ветре 12 м/с и более поправка равна нулю.
P - Атмосферное давление - приведенное к уровню моря атмосферное давление.
Po - Атмосферное давление - измеренное на уровне метеостанции атмосферное давление.
Tmin - Минимальная температура - минимум температуры воздуха на высоте 2 м над землей.
Tmax - Максимальная температура - максимум температуры воздуха на высоте 2 м над землей.
R - Количество осадков - Количество выпавших осадков за период времени, мм. При наведении курсора мыши на число - период времени, за который выпало указанное количество осадков.
R24 - Количество осадков - Количество выпавших осадков за 24 часа, мм.
S - Снежный покров - Высота снежного покрова, см. При наведении курсора мыши на число - состояние снежного покрова и степень покрытия местности в баллах.